{"data":{"norad_id":69664,"intl_designator":"2026-143R","name":"STARLINK-37830","alt_names":[],"object_type":"PAYLOAD","status":"ACTIVE","operator":null,"country":"US","launch_date":"2026-06-21","launch_site_code":"AFWTR","launch_vehicle":null,"mission":null,"orbit_class":"UNKNOWN","rcs_meters":null,"size_class":null,"mass_kg":null,"dimensions":null,"purposes":["comms"],"wikipedia_slug":null,"has_3d_model":false,"image_url":null,"decayed_at":null,"tle_current":{"epoch":"2026-09-18T09:08:30.729408Z","epoch_age_seconds":204749,"freshness":"STALE","line1":"1 69664U 26143R   26261.38091122  .00011202  00000+0  34882-3 0  9993","line2":"2 69664  97.2834 304.5370 0000187  93.7546 266.3718 15.33443281 14819","mean_motion":15.33443281,"eccentricity":1.87e-5,"inclination_deg":97.2834,"raan_deg":304.537,"arg_perigee_deg":93.7546,"mean_anomaly_deg":266.3718,"bstar":0.00034882,"rev_number":1481,"period_min":93.906309926308,"perigee_km":465.42031210258,"apogee_km":465.67626593239,"semimajor_km":6843.6852890175,"source":"CELESTRAK","updated_at":"2026-09-20T09:00:44.249882Z"}}}